Regional Weather Roundup
Issued by NWS

Home | Current Version | Previous Version | Graphics & Text | Print | Product List | Glossary On
Versions: 1 2 3 4 5 6 7 8 9 10 11 12 13 14 15 16 17 18 19 20 21 22 23 24 25 26 27 28 29 30 31 32 33 34 35 36 37 38 39 40 41 42 43 44 45 46 47 48 49 50
939
ASUS43 KOAX 220302
RWRNE

WEATHER ROUNDUP FOR NEBRASKA
NATIONAL WEATHER SERVICE OMAHA NE
900 PM CST TUE FEB 21 2017

NOTES: SATELLITE DATA IS BEING USED TO AUGMENT CLOUD COVER ABOVE
       12000 FEET.
       "FAIR" INDICATES FEW OR NO CLOUDS BELOW 12,000 FEET WITH NO
       SIGNIFICANT WEATHER AND/OR OBSTRUCTIONS TO VISIBILITY.

  * THESE STATIONS DO NOT REPORT WEATHER SUCH AS RAIN...SNOW OR FOG.

NEZ001>004-019>022-054>056-220400-
NEBRASKA PANHANDLE

CITY           SKY/WX    TMP DP  RH WIND       PRES   REMARKS
SCOTTSBLUFF    CLEAR     63  16  16 W21G28    29.80F
ALLIANCE       CLEAR     52  24  33 W16       29.78F
CHADRON        CLEAR     50  27  40 W7        29.75R
KIMBALL        CLEAR     45  21  39 SW12      29.87F
SIDNEY         CLEAR     55  17  22 W20       29.84F
$$

NEZ057>060-069>072-079>082-220400-
SOUTHWEST NEBRASKA

CITY           SKY/WX    TMP DP  RH WIND       PRES   REMARKS
NORTH PLATTE   CLEAR     48  25  40 CALM      29.80F
IMPERIAL       CLOUDY    43  23  45 S8        29.84F
LEXINGTON      CLEAR     55  27  33 W6        29.81R
MCCOOK         CLEAR     54  25  32 SW8       29.82F
OGALLALA       CLEAR     46  21  36 CALM      29.81F
$$

NEZ005>010-023>029-035>040-094-220400-
NORTH CENTRAL NEBRASKA

CITY           SKY/WX    TMP DP  RH WIND       PRES   REMARKS
VALENTINE      CLEAR     54  29  38 W14       29.73R
AINSWORTH      MOCLDY    49  33  54 SW8       29.74R
BROKEN BOW     CLEAR     44  29  55 CALM      29.78S
O`NEILL        PTCLDY    54  36  49 SW7       29.71F
ORD            CLEAR     52  32  46 SW9       29.75S
THEDFORD       MOCLDY    53  28  38 SW8       29.78S
$$

NEZ041-046>049-061>064-073>077-083>087-220400-
SOUTH CENTRAL NEBRASKA

CITY           SKY/WX    TMP DP  RH WIND       PRES   REMARKS
GRAND ISLAND   CLEAR     54  34  46 S9        29.78F
AURORA         CLEAR     56  30  36 SW12      29.78F
HASTINGS       CLEAR     57  28  33 S8        29.80F
HEBRON         CLEAR     55  28  34 S10       29.82S
HOLDREGE       CLEAR     58  24  27 S8        29.80F
KEARNEY *      CLEAR     59  27  29 SW10      29.79F
YORK           CLEAR     52  32  46 S8        29.79S
$$

NEZ011>018-030>034-042>045-220400-
NORTHEAST NEBRASKA

CITY           SKY/WX    TMP DP  RH WIND       PRES   REMARKS
NORFOLK        CLEAR     55  34  45 S13       29.72S
ALBION         PTCLDY    57  32  38 SE3       29.74F
BLAIR          CLEAR     58  38  48 S15       29.77F
FREMONT        CLEAR     60  32  34 S10G17    29.77S
TEKAMAH        CLEAR     46  37  71 S8        29.75F
WAYNE          PTCLDY    55  34  45 S6        29.72S
$$

NEZ050>053-065>068-078-088>093-220400-
SOUTHEAST NEBRASKA

CITY           SKY/WX    TMP DP  RH WIND       PRES   REMARKS
LINCOLN        CLEAR     57  32  38 S12       29.80F
OMAHA EPPLEY   CLEAR     52  37  56 S8        29.78F
BEATRICE       CLEAR     57  35  44 S10       29.82F
FALLS CITY     CLEAR     54  35  48 S10       29.85F
NEBRASKA CITY  CLEAR     57  28  33 S15       29.82F
PLATTSMOUTH    CLEAR     56  32  40 S14       29.80F
$$

NEZ044-045-051>053-067-220400-
OMAHA AREA

CITY           SKY/WX    TMP DP  RH WIND       PRES   REMARKS
OMAHA EPPLEY   CLEAR     52  37  56 S8        29.78F
BLAIR          CLEAR     58  38  48 S15       29.77F
FREMONT        CLEAR     60  32  34 S10G17    29.77S
MILLARD        CLEAR     58  39  49 SE5       29.79S
OFFUTT AFB     CLEAR     47  39  71 E8        29.79F
PLATTSMOUTH    CLEAR     56  32  40 S14       29.80F
WAHOO          FAIR      51  31  46 S8        29.78S
$$




USA.gov is the U.S. government's official web portal to all federal, state and local government web resources and services.